TimeEST,TemperatureF,Dew PointF,Humidity,Sea Level PressureIn,VisibilityMPH,Wind Direction,Wind SpeedMPH,Gust SpeedMPH,PrecipitationIn,Events,Conditions,WindDirDegrees,DateUTC
12:53 AM,-9999,-9999,N/A,29.99,10.0,ESE,18.4,24.2,N/A,,Scattered Clouds,110,2013-11-26 05:53:00
1:29 AM,-9999,-9999,N/A,29.98,10.0,ESE,16.1,-,N/A,,Mostly Cloudy,110,2013-11-26 06:29:00
1:39 AM,-9999,-9999,N/A,29.98,10.0,ESE,12.7,23.0,N/A,,Scattered Clouds,120,2013-11-26 06:39:00
1:53 AM,-9999,-9999,N/A,29.97,10.0,ESE,15.0,-,N/A,,Scattered Clouds,120,2013-11-26 06:53:00
2:53 AM,-9999,-9999,N/A,29.96,10.0,SE,16.1,24.2,N/A,,Scattered Clouds,130,2013-11-26 07:53:00
3:53 AM,-9999,-9999,N/A,29.96,10.0,SE,15.0,-,N/A,,Partly Cloudy,130,2013-11-26 08:53:00
4:53 AM,-9999,-9999,N/A,29.95,10.0,SE,15.0,21.9,N/A,,Clear,130,2013-11-26 09:53:00
5:53 AM,-9999,-9999,N/A,29.95,10.0,SE,15.0,-,N/A,,Scattered Clouds,130,2013-11-26 10:53:00
6:01 AM,78.8,71.6,78,29.95,10.0,SE,13.8,-,N/A,,Overcast,130,2013-11-26 11:01:00
6:53 AM,78.8,71.6,78,29.96,10.0,SE,13.8,-,N/A,,Mostly Cloudy,130,2013-11-26 11:53:00
7:53 AM,78.8,71.6,78,29.96,10.0,SE,12.7,-,N/A,,Mostly Cloudy,130,2013-11-26 12:53:00
8:53 AM,80.6,71.6,74,29.97,10.0,ESE,13.8,-,N/A,,Mostly Cloudy,120,2013-11-26 13:53:00
9:08 AM,80.6,71.6,74,29.97,8.0,SE,16.1,21.9,0.00,Rain,Light Rain,140,2013-11-26 14:08:00
9:21 AM,80.6,71.6,74,29.97,10.0,SE,11.5,-,0.01,,Mostly Cloudy,130,2013-11-26 14:21:00
9:42 AM,80.6,71.6,74,29.97,9.0,SE,16.1,23.0,0.02,Rain,Light Rain,140,2013-11-26 14:42:00
9:53 AM,80.6,71.6,74,29.97,10.0,SE,12.7,20.7,0.03,,Mostly Cloudy,140,2013-11-26 14:53:00
10:13 AM,80.6,71.6,74,29.97,6.0,SE,12.7,-,0.01,Rain,Light Rain,140,2013-11-26 15:13:00
10:53 AM,80.6,71.6,74,29.96,10.0,SE,13.8,20.7,0.04,,Mostly Cloudy,140,2013-11-26 15:53:00
11:53 AM,80.6,71.6,74,29.94,10.0,South,12.7,-,N/A,,Mostly Cloudy,170,2013-11-26 16:53:00
12:53 PM,80.6,71.6,74,29.90,10.0,SSE,13.8,-,N/A,,Mostly Cloudy,160,2013-11-26 17:53:00
1:53 PM,80.6,71.6,74,29.87,10.0,SSE,12.7,-,N/A,,Mostly Cloudy,160,2013-11-26 18:53:00
2:53 PM,80.6,71.6,74,29.86,10.0,South,13.8,-,N/A,,Mostly Cloudy,170,2013-11-26 19:53:00
3:53 PM,80.6,71.6,74,29.85,10.0,South,10.4,-,N/A,,Mostly Cloudy,180,2013-11-26 20:53:00
4:53 PM,80.6,73.9,80,29.84,10.0,South,8.1,-,N/A,,Mostly Cloudy,180,2013-11-26 21:53:00
5:53 PM,78.8,73.9,85,29.85,10.0,South,6.9,-,N/A,,Mostly Cloudy,180,2013-11-26 22:53:00
6:53 PM,78.8,75.0,88,29.85,10.0,South,6.9,-,N/A,,Mostly Cloudy,170,2013-11-26 23:53:00
7:53 PM,78.8,75.0,88,29.86,10.0,South,9.2,-,N/A,,Mostly Cloudy,180,2013-11-27 00:53:00
8:53 PM,77.0,73.9,90,29.86,10.0,SSW,15.0,-,N/A,,Mostly Cloudy,200,2013-11-27 01:53:00
10:01 PM,-9999,-9999,N/A,29.89,-9999.0,SSW,17.3,27.6,N/A,Thunderstorm,Thunderstorm,200,2013-11-27 03:01:00
10:53 PM,-9999,-9999,N/A,29.89,7.0,WSW,20.7,29.9,0.01,Thunderstorm,Unknown,240,2013-11-27 03:53:00
11:04 PM,-9999,-9999,N/A,29.89,2.0,SW,17.3,-,0.09,Thunderstorm,Unknown,230,2013-11-27 04:04:00
11:13 PM,-9999,-9999,N/A,29.90,4.0,SW,16.1,26.5,0.11,Thunderstorm,Unknown,220,2013-11-27 04:13:00
11:45 PM,-9999,-9999,N/A,29.89,2.5,SSW,13.8,-,0.11,Thunderstorm,Mostly Cloudy,210,2013-11-27 04:45:00
11:53 PM,-9999,-9999,N/A,29.89,6.0,SSW,16.1,24.2,0.15,Rain-Thunderstorm,Thunderstorms and Rain,200,2013-11-27 04:53:00
11:58 PM,-9999,-9999,N/A,29.91,1.5,West,11.5,24.2,0.20,Thunderstorm,Unknown,260,2013-11-27 04:58:00